Location: Newark
(49.8348°N, 24.0280°E)
Time: 11:35:25
(UTC+00:00)

Explorer 7 - Pass Details

Date: 25 January 2020
Orbit: 485 x 679 km, 50.3° (Epoch: 23 February)

Event Time Altitude Azimuth Distance (km) Brightness Sun altitude
Rises 22:38:30 0° 255° (WSW) 2,552 - -59.1°
Reaches altitude 10° 22:40:40 10° 255° (WSW) 1,667 - -59.1°
Maximum altitude 22:44:25 84° 169° (S) 494 - -59.0°
Drops below altitude 10° 22:48:13 10° 80° (E) 1,690 - -59.0°
Sets 22:50:26 0° 80° (E) 2,590 - -58.9°
